Showing default

ZHUHAI-1 03E, 44539

Orbit data source: Space-Track

ZHUHAI-1 03E, 44539 is a payload satellite owned by Zhuhai Orbita (CN) in SSO that was launched on Thu, 19 Sep 2019 UTC via a CHANG ZHENG 11 launch vehicle from the Jiuquan Satellite Launch Center, China (JSC). Payload-class satellites include a variety of spacecraft equipped with specific instruments for various scientific and technological missions. These include communications satellites like Starlink; space stations such as the ISS; scientific satellites like the Hubble; Earth observation satellites from companies like Planet Labs, Umbra, and HawkEye 360; GPS; miniature CubeSats for education and research; and military/defense satellites.

Loading next visibility...
Identifier
44539, 2019-060F
Orbit
SSO
Last TLE update
6 hours ago
Origin
Manufacturer
Harbin
Mission
Operational Commercial Imaging
Bus & Motor
OVS-1, Unknown motor
Mass
95 kg wet, 95 kg dry
Launch date (UTC)
2019-09-19 (6 years ago)
Launch vehicle
CHANG ZHENG 11
Launch site
Jiuquan Satellite Launch Center, China (JSC)
Object type
Payload
Rocket body
Debris
Shape & HBR
Box, Unknown HBR
Radar Cross Section
0.375 m², Medium (>0.1 m² and < 1m²)

Expand to show TLE details & history

TLE from 6 hours ago
0 ZHUHAI-1 03E
1 44539U 19060F   25182.17699475  .00010233  00000-0  38160-3 0  9997
2 44539  97.5229 319.7065 0011819 174.7709 185.3655 15.27557221321957
Epoch: 2025-07-01T04:14Z
TLE epoch observation values (Epoch: 2025-07-01T04:14:52.346Z)
Latitude
-0.00007°
Longitude
-23.4878°
Altitude
494.29 km
Speed
7.613 km/s
True Right ascension
21h 18m 49s
True Declination
0° 00' 00"
Sunlit
Object was in full shadow at epoch
Visualization orbit readout
Latitude
-52.20554°
Longitude
-13.48339°
Altitude
509.002 km
Speed
7.605 km/s
Apparent Right ascension
09h 43m 42s
Apparent Declination
-85° 57' 18"
Sunlit
Object is in full shadow
Visualization observer readout
Local Sidereal Time
21:56:46
Azimuth
179.68° S
Elevation
-43.954°
Doppler factor
1
Orbital elements
Apogee altitude
488.184 km
Perigee altitude
471.972 km
Semi-major axis
6,858.215 km
Eccentricity
0.00118
Inclination
97.5229°
RAAN
319.7065°
Arg. of periapsis
174.7709°
True anomaly
Unknown
Mean anomaly
185.3655°
Eccentric anomaly
Unknown
Mean motion
3.82144 °/min
Orbital period
94.21 mins
BSTAR
0.0003816
Loading maneuver chart data...
Loading SW <> Apogee altitude chart data...
Loading historical data...
Loading historical data...
Loading historical data...
Loading historical data...
Loading historical data...
Loading historical data...
Loading historical data...

ZHUHAI-1 03E Visibility forecast

Observer location: undefined°, undefined°

Span
Click to sort rows by Start time (UTC) header in descending order
Start Az.
Max El. time (UTC)
Max El. Az.
Max El.
End time (UTC)
End Az.
6 mins2025-07-01 22:06:20.637Z10.194° NNE2025-07-01 22:09:20.637Z212.842° SW43.623°2025-07-01 22:12:20.637Z195.355° SSW
4 mins2025-07-02 08:42:20.637Z114.122° SE2025-07-02 08:43:20.637Z87.024° E27.1°2025-07-02 08:46:20.637Z13.624° NNE
|